Weather in Maloe Vosnoe

Russia / Vologda Oblast     58°41′11″N   36°11′57″E
temp.,
°C
wind,
m/s
gust,
m/s
humid.,
%
clouds,
%
prec.,
mm/h
press.,
hPa
HPBL,
m
8 may, sat
sat800:00+4s3784100 0.0 1009120
03:00+4se3989100 0.0 1008194
06:00+7sse61476100 0.0 1006592
09:00+6sse61391100 1.0 10051137
12:00+7sse61192100 0.2 1004776
15:00+9ssw3689100 0.5 1004607
18:00+7wnw5781100 0.3 1005718
21:00+5nw3988100 0.3 1006598
9 may, sun
sun900:00+3nw51095100 0.0 1007626
03:00+3nw4988100 0.1 1009933
06:00+3nw5988100 0.0 1011926
09:00+6nw6106299 0.0 10121251
12:00+10nw6841100 0.0 10142283
15:00+11wnw6842100 0.0 10162333
18:00+11wnw57425 0.0 10182065
21:00+5wnw34600 0.0 102148
10 may, mon
mon1000:00+3wsw226738 0.0 102315
03:00+3ssw348083 0.0 102567
06:00+5s4127558 0.0 1025302
09:00+10ssw595780 0.0 1025650
12:00+8ssw51375100 0.1 1025797
15:00+14sw695598 0.1 1025963
18:00+16sw486118 0.0 10251048
21:00+11ssw34865 0.0 102741
11 may, tue
tue1100:00+9sw3891100 0.0 1028119
03:00+8sw39936 0.0 1029150
06:00+9ssw398799 0.0 1029205
09:00+15sw4765100 0.0 1030512
12:00+18sw575082 0.0 10291092
15:00+20ssw57453 0.0 10291478
18:00+19ssw46537 0.0 1028860
21:00+13s397988 0.0 1028147
12 may, wed
wed1200:00+11ssw398783 0.0 1029148
03:00+10ssw349196 0.0 103070
06:00+11ssw24865 0.0 1030105
09:00+17s34610 0.0 1029517
12:00+20s45490 0.0 10291237
15:00+22sse45450 0.0 10271400
18:00+21sse34555 0.0 1026948
21:00+15sse22792 0.0 102725